contact:dominique.lefevre@mio.osupytheas.fr, maurice.libes@osupytheas.fr, didier.mallarino@osupytheas.fr
Project:EMSO http://www.emso-fr.org/EMSO-France
Depth: 2436.0 m
Title:EMSO Ligure Ouest : Data MII capteur CSTAR
DateTime,Latitude,Longitude,Instrument_Serial,Reference_Counts,Signal_Counts,Corrected_Signal_raw_counts,Calculated_Beam_c_inverse_meters,Internal_thermistor_counts
DateTime,Latitude,Longitude,Instrument_Serial,Reference_Counts,Signal_Counts,Corrected_Signal_raw_counts,Calculated_Beam_c_inverse_meters,Internal_thermistor_counts
2019-12-04T00:01:56,42.805,6.029,CST-1368DR,7232,10139,15301,0.082,551
2019-12-04T00:04:57,42.805,6.029,CST-1368DR,7232,10139,15301,0.082,551
2019-12-04T00:07:59,42.805,6.029,CST-1368DR,7232,10136,15297,0.083,551
2019-12-04T00:11:01,42.805,6.029,CST-1368DR,7232,10139,15302,0.081,551
2019-12-04T00:14:02,42.805,6.029,CST-1368DR,7232,10137,15299,0.082,551
2019-12-04T00:17:04,42.805,6.029,CST-1368DR,7232,10139,15301,0.082,551
2019-12-04T00:20:05,42.805,6.029,CST-1368DR,7232,10139,15301,0.082,551
2019-12-04T00:23:07,42.805,6.029,CST-1368DR,7232,10138,15300,0.082,551
2019-12-04T00:26:09,42.805,6.029,CST-1368DR,7232,10139,15301,0.082,551
2019-12-04T00:29:10,42.805,6.029,CST-1368DR,7232,10138,15301,0.082,551
2019-12-04T00:32:12,42.805,6.029,CST-1368DR,7232,10138,15301,0.082,551
2019-12-04T00:35:14,42.805,6.029,CST-1368DR,7232,10137,15299,0.082,551
2019-12-04T00:38:15,42.805,6.029,CST-1368DR,7232,10138,15299,0.082,551
2019-12-04T00:41:17,42.805,6.029,CST-1368DR,7232,10136,15298,0.082,551
2019-12-04T00:44:18,42.805,6.029,CST-1368DR,7232,10138,15300,0.082,551
2019-12-04T00:47:20,42.805,6.029,CST-1368DR,7232,10136,15297,0.083,551
2019-12-04T00:50:22,42.805,6.029,CST-1368DR,7232,10137,15298,0.082,551
2019-12-04T00:53:23,42.805,6.029,CST-1368DR,7232,10137,15298,0.082,551
2019-12-04T00:56:25,42.805,6.029,CST-1368DR,7232,10138,15299,0.082,551
2019-12-04T00:59:27,42.805,6.029,CST-1368DR,7232,10137,15298,0.082,551
2019-12-04T01:02:28,42.805,6.029,CST-1368DR,7232,10138,15300,0.082,551
2019-12-04T01:05:30,42.805,6.029,CST-1368DR,7232,10137,15298,0.082,551
2019-12-04T01:08:32,42.805,6.029,CST-1368DR,7232,10136,15296,0.083,551
2019-12-04T01:11:33,42.805,6.029,CST-1368DR,7232,10137,15298,0.082,551
2019-12-04T01:14:35,42.805,6.029,CST-1368DR,7232,10138,15301,0.082,551
2019-12-04T01:17:37,42.805,6.029,CST-1368DR,7232,10135,15296,0.083,551
2019-12-04T01:20:38,42.805,6.029,CST-1368DR,7232,10137,15299,0.082,551
2019-12-04T01:23:40,42.805,6.029,CST-1368DR,7232,10137,15299,0.082,551
2019-12-04T01:26:42,42.805,6.029,CST-1368DR,7232,10135,15296,0.083,551
2019-12-04T01:29:43,42.805,6.029,CST-1368DR,7232,10135,15296,0.083,551
2019-12-04T01:32:45,42.805,6.029,CST-1368DR,7232,10137,15298,0.082,551
2019-12-04T01:35:46,42.805,6.029,CST-1368DR,7232,10136,15296,0.083,551
2019-12-04T01:38:48,42.805,6.029,CST-1368DR,7232,10137,15298,0.082,551
2019-12-04T01:41:50,42.805,6.029,CST-1368DR,7232,10137,15298,0.082,551
2019-12-04T01:44:51,42.805,6.029,CST-1368DR,7232,10136,15297,0.083,551
2019-12-04T01:47:53,42.805,6.029,CST-1368DR,7232,10137,15298,0.082,551
2019-12-04T01:50:55,42.805,6.029,CST-1368DR,7232,10136,15298,0.082,551
2019-12-04T01:53:56,42.805,6.029,CST-1368DR,7232,10136,15297,0.083,551
2019-12-04T01:56:58,42.805,6.029,CST-1368DR,7232,10136,15296,0.083,550
2019-12-04T02:00:00,42.805,6.029,CST-1368DR,7232,10137,15298,0.082,551
2019-12-04T02:03:01,42.805,6.029,CST-1368DR,7232,10136,15298,0.082,551
2019-12-04T02:06:03,42.805,6.029,CST-1368DR,7232,10136,15296,0.083,551
2019-12-04T02:09:05,42.805,6.029,CST-1368DR,7232,10136,15298,0.082,551
2019-12-04T02:12:06,42.805,6.029,CST-1368DR,7232,10136,15296,0.083,551
2019-12-04T02:15:08,42.805,6.029,CST-1368DR,7232,10137,15298,0.082,551
2019-12-04T02:18:10,42.805,6.029,CST-1368DR,7232,10136,15297,0.083,551
2019-12-04T02:21:11,42.805,6.029,CST-1368DR,7232,10137,15298,0.082,551
2019-12-04T02:24:13,42.805,6.029,CST-1368DR,7232,10135,15295,0.083,551
2019-12-04T02:27:14,42.805,6.029,CST-1368DR,7232,10132,15291,0.084,551
2019-12-04T02:30:16,42.805,6.029,CST-1368DR,7232,10136,15297,0.083,550
2019-12-04T02:33:18,42.805,6.029,CST-1368DR,7232,10136,15297,0.083,551
2019-12-04T02:36:19,42.805,6.029,CST-1368DR,7232,10136,15298,0.082,551
2019-12-04T02:39:21,42.805,6.029,CST-1368DR,7232,10136,15296,0.083,551
2019-12-04T02:42:23,42.805,6.029,CST-1368DR,7231,10134,15296,0.083,551
2019-12-04T02:45:24,42.805,6.029,CST-1368DR,7232,10136,15298,0.082,551
2019-12-04T02:48:26,42.805,6.029,CST-1368DR,7232,10135,15296,0.083,551
2019-12-04T02:51:28,42.805,6.029,CST-1368DR,7231,10137,15301,0.082,550
2019-12-04T02:54:29,42.805,6.029,CST-1368DR,7232,10136,15298,0.082,551
2019-12-04T02:57:31,42.805,6.029,CST-1368DR,7231,10135,15298,0.082,550
2019-12-04T03:00:33,42.805,6.029,CST-1368DR,7232,10137,15299,0.082,551
2019-12-04T03:03:34,42.805,6.029,CST-1368DR,7231,10134,15295,0.083,551
2019-12-04T03:06:36,42.805,6.029,CST-1368DR,7231,10136,15299,0.082,551
2019-12-04T03:09:37,42.805,6.029,CST-1368DR,7231,10136,15299,0.082,551
2019-12-04T03:12:39,42.805,6.029,CST-1368DR,7231,10136,15298,0.082,551
2019-12-04T03:15:41,42.805,6.029,CST-1368DR,7231,10135,15297,0.083,551
2019-12-04T03:18:42,42.805,6.029,CST-1368DR,7231,10130,15290,0.084,551
2019-12-04T03:21:44,42.805,6.029,CST-1368DR,7231,10136,15299,0.082,551
2019-12-04T03:24:46,42.805,6.029,CST-1368DR,7231,10136,15299,0.082,551
2019-12-04T03:27:47,42.805,6.029,CST-1368DR,7231,10136,15299,0.082,551
2019-12-04T03:30:49,42.805,6.029,CST-1368DR,7231,10134,15296,0.083,551
2019-12-04T03:33:51,42.805,6.029,CST-1368DR,7231,10136,15299,0.082,551
2019-12-04T03:36:52,42.805,6.029,CST-1368DR,7231,10137,15300,0.082,551
2019-12-04T03:39:54,42.805,6.029,CST-1368DR,7231,10136,15299,0.082,551
2019-12-04T03:42:55,42.805,6.029,CST-1368DR,7231,10136,15299,0.082,551
2019-12-04T03:45:57,42.805,6.029,CST-1368DR,7231,10130,15290,0.084,551
2019-12-04T03:48:59,42.805,6.029,CST-1368DR,7231,10130,15290,0.084,551
2019-12-04T03:52:00,42.805,6.029,CST-1368DR,7231,10135,15298,0.082,550
2019-12-04T03:55:02,42.805,6.029,CST-1368DR,7231,10136,15299,0.082,551
2019-12-04T03:58:04,42.805,6.029,CST-1368DR,7231,10136,15298,0.082,551
2019-12-04T04:01:05,42.805,6.029,CST-1368DR,7231,10136,15298,0.082,551
2019-12-04T04:04:07,42.805,6.029,CST-1368DR,7231,10136,15299,0.082,551
2019-12-04T04:07:09,42.805,6.029,CST-1368DR,7231,10137,15301,0.082,551
2019-12-04T04:10:10,42.805,6.029,CST-1368DR,7231,10137,15300,0.082,551
2019-12-04T04:13:12,42.805,6.029,CST-1368DR,7231,10137,15300,0.082,551
2019-12-04T04:16:14,42.805,6.029,CST-1368DR,7231,10137,15300,0.082,551
2019-12-04T04:19:15,42.805,6.029,CST-1368DR,7231,10137,15301,0.082,550
2019-12-04T04:22:17,42.805,6.029,CST-1368DR,7231,10138,15302,0.081,551
2019-12-04T04:25:18,42.805,6.029,CST-1368DR,7231,10137,15300,0.082,551
2019-12-04T04:28:20,42.805,6.029,CST-1368DR,7231,10131,15291,0.084,551
2019-12-04T04:31:22,42.805,6.029,CST-1368DR,7231,10137,15300,0.082,550
2019-12-04T04:34:23,42.805,6.029,CST-1368DR,7231,10137,15301,0.082,550
2019-12-04T04:37:25,42.805,6.029,CST-1368DR,7231,10137,15301,0.082,551
2019-12-04T04:40:27,42.805,6.029,CST-1368DR,7231,10132,15293,0.084,551
2019-12-04T04:43:29,42.805,6.029,CST-1368DR,7231,10137,15300,0.082,551
2019-12-04T04:46:30,42.805,6.029,CST-1368DR,7231,10137,15300,0.082,551
2019-12-04T04:49:32,42.805,6.029,CST-1368DR,7231,10135,15298,0.082,551
2019-12-04T04:52:34,42.805,6.029,CST-1368DR,7231,10137,15301,0.082,551
2019-12-04T04:55:35,42.805,6.029,CST-1368DR,7231,10137,15301,0.082,551
2019-12-04T04:58:37,42.805,6.029,CST-1368DR,7231,10137,15300,0.082,551
2019-12-04T05:01:39,42.805,6.029,CST-1368DR,7231,10138,15302,0.081,551
2019-12-04T05:04:40,42.805,6.029,CST-1368DR,7231,10137,15301,0.082,551
2019-12-04T05:07:42,42.805,6.029,CST-1368DR,7231,10138,15301,0.082,551
2019-12-04T05:10:44,42.805,6.029,CST-1368DR,7231,10139,15304,0.081,551
2019-12-04T05:13:45,42.805,6.029,CST-1368DR,7231,10137,15301,0.082,551
2019-12-04T05:16:47,42.805,6.029,CST-1368DR,7231,10138,15302,0.081,551
2019-12-04T05:19:48,42.805,6.029,CST-1368DR,7231,10137,15301,0.082,551
2019-12-04T05:22:50,42.805,6.029,CST-1368DR,7231,10133,15294,0.083,551
2019-12-04T05:25:52,42.805,6.029,CST-1368DR,7231,10138,15301,0.082,551
2019-12-04T05:28:54,42.805,6.029,CST-1368DR,7231,10137,15301,0.082,551
2019-12-04T05:31:55,42.805,6.029,CST-1368DR,7231,10136,15299,0.082,551
2019-12-04T05:34:57,42.805,6.029,CST-1368DR,7231,10137,15301,0.082,551
2019-12-04T05:37:58,42.805,6.029,CST-1368DR,7231,10137,15300,0.082,551
2019-12-04T05:41:00,42.805,6.029,CST-1368DR,7231,10137,15300,0.082,550
2019-12-04T05:44:02,42.805,6.029,CST-1368DR,7231,10137,15301,0.082,551
2019-12-04T05:47:03,42.805,6.029,CST-1368DR,7231,10138,15301,0.082,551
2019-12-04T05:50:05,42.805,6.029,CST-1368DR,7231,10137,15300,0.082,551
2019-12-04T05:53:07,42.805,6.029,CST-1368DR,7231,10136,15299,0.082,551
2019-12-04T05:56:08,42.805,6.029,CST-1368DR,7231,10137,15300,0.082,551
2019-12-04T05:59:10,42.805,6.029,CST-1368DR,7231,10137,15301,0.082,551
2019-12-04T06:02:12,42.805,6.029,CST-1368DR,7231,10137,15301,0.082,551
2019-12-04T06:05:13,42.805,6.029,CST-1368DR,7231,10138,15302,0.081,551
2019-12-04T06:08:15,42.805,6.029,CST-1368DR,7231,10137,15301,0.082,551
2019-12-04T06:11:17,42.805,6.029,CST-1368DR,7231,10137,15301,0.082,551
2019-12-04T06:14:18,42.805,6.029,CST-1368DR,7231,10137,15300,0.082,551
2019-12-04T06:17:20,42.805,6.029,CST-1368DR,7231,10137,15301,0.082,551
2019-12-04T06:20:22,42.805,6.029,CST-1368DR,7231,10137,15301,0.082,551
2019-12-04T06:23:23,42.805,6.029,CST-1368DR,7231,10138,15301,0.082,551
2019-12-04T06:26:25,42.805,6.029,CST-1368DR,7231,10138,15301,0.082,551
2019-12-04T06:29:26,42.805,6.029,CST-1368DR,7231,10137,15301,0.082,551
2019-12-04T06:32:28,42.805,6.029,CST-1368DR,7231,10137,15301,0.082,551
2019-12-04T06:35:30,42.805,6.029,CST-1368DR,7231,10137,15300,0.082,551
2019-12-04T06:38:31,42.805,6.029,CST-1368DR,7231,10138,15301,0.082,551
2019-12-04T06:41:33,42.805,6.029,CST-1368DR,7231,10136,15299,0.082,551
2019-12-04T06:44:35,42.805,6.029,CST-1368DR,7231,10137,15301,0.082,551
2019-12-04T06:47:36,42.805,6.029,CST-1368DR,7231,10137,15300,0.082,551
2019-12-04T06:50:38,42.805,6.029,CST-1368DR,7231,10136,15299,0.082,550
2019-12-04T06:53:40,42.805,6.029,CST-1368DR,7231,10136,15299,0.082,551
2019-12-04T06:56:42,42.805,6.029,CST-1368DR,7231,10137,15300,0.082,551
2019-12-04T06:59:43,42.805,6.029,CST-1368DR,7231,10138,15302,0.081,551
2019-12-04T07:02:45,42.805,6.029,CST-1368DR,7230,10134,15298,0.082,551
2019-12-04T07:05:46,42.805,6.029,CST-1368DR,7230,10137,15302,0.081,550
2019-12-04T07:08:48,42.805,6.029,CST-1368DR,7231,10137,15300,0.082,551
2019-12-04T07:11:50,42.805,6.029,CST-1368DR,7231,10133,15294,0.083,551
2019-12-04T07:14:51,42.805,6.029,CST-1368DR,7231,10137,15300,0.082,551
2019-12-04T07:17:53,42.805,6.029,CST-1368DR,7230,10136,15301,0.082,551
2019-12-04T07:20:55,42.805,6.029,CST-1368DR,7230,10137,15303,0.081,550
2019-12-04T07:23:56,42.805,6.029,CST-1368DR,7230,10137,15303,0.081,551
2019-12-04T07:26:58,42.805,6.029,CST-1368DR,7230,10137,15302,0.081,551
2019-12-04T07:30:00,42.805,6.029,CST-1368DR,7230,10136,15301,0.082,551
2019-12-04T07:33:01,42.805,6.029,CST-1368DR,7230,10136,15300,0.082,551
2019-12-04T07:36:03,42.805,6.029,CST-1368DR,7230,10137,15302,0.081,551
2019-12-04T07:39:05,42.805,6.029,CST-1368DR,7230,10136,15301,0.082,551
2019-12-04T07:42:06,42.805,6.029,CST-1368DR,7230,10136,15301,0.082,551
2019-12-04T07:45:08,42.805,6.029,CST-1368DR,7230,10136,15301,0.082,551
2019-12-04T07:48:10,42.805,6.029,CST-1368DR,7230,10136,15300,0.082,551
2019-12-04T07:51:11,42.805,6.029,CST-1368DR,7230,10136,15301,0.082,551
2019-12-04T07:54:13,42.805,6.029,CST-1368DR,7230,10134,15298,0.082,551
2019-12-04T07:57:15,42.805,6.029,CST-1368DR,7230,10135,15299,0.082,551
2019-12-04T08:00:16,42.805,6.029,CST-1368DR,7230,10137,15302,0.081,551
2019-12-04T08:03:18,42.805,6.029,CST-1368DR,7230,10133,15296,0.083,551
2019-12-04T08:06:20,42.805,6.029,CST-1368DR,7230,10132,15295,0.083,551
2019-12-04T08:09:21,42.805,6.029,CST-1368DR,7230,10136,15301,0.082,551
2019-12-04T08:12:23,42.805,6.029,CST-1368DR,7230,10136,15301,0.082,551
2019-12-04T08:15:25,42.805,6.029,CST-1368DR,7230,10130,15292,0.084,551
2019-12-04T08:18:26,42.805,6.029,CST-1368DR,7230,10135,15299,0.082,551
2019-12-04T08:21:28,42.805,6.029,CST-1368DR,7230,10133,15296,0.083,551
2019-12-04T08:24:30,42.805,6.029,CST-1368DR,7230,10135,15300,0.082,551
2019-12-04T08:27:31,42.805,6.029,CST-1368DR,7230,10135,15300,0.082,551
2019-12-04T08:30:33,42.805,6.029,CST-1368DR,7230,10135,15300,0.082,551
2019-12-04T08:33:35,42.805,6.029,CST-1368DR,7230,10136,15300,0.082,551
2019-12-04T08:36:36,42.805,6.029,CST-1368DR,7230,10136,15300,0.082,551
2019-12-04T08:39:38,42.805,6.029,CST-1368DR,7230,10134,15298,0.082,551
2019-12-04T08:42:39,42.805,6.029,CST-1368DR,7230,10134,15298,0.082,551
2019-12-04T08:45:41,42.805,6.029,CST-1368DR,7230,10134,15298,0.082,551
2019-12-04T08:48:43,42.805,6.029,CST-1368DR,7230,10134,15298,0.082,551
2019-12-04T08:51:44,42.805,6.029,CST-1368DR,7230,10135,15300,0.082,551
2019-12-04T08:54:46,42.805,6.029,CST-1368DR,7230,10135,15300,0.082,551
2019-12-04T08:57:48,42.805,6.029,CST-1368DR,7230,10135,15300,0.082,551
2019-12-04T09:00:49,42.805,6.029,CST-1368DR,7230,10134,15298,0.082,551
2019-12-04T09:03:51,42.805,6.029,CST-1368DR,7230,10135,15300,0.082,551
2019-12-04T09:06:52,42.805,6.029,CST-1368DR,7230,10135,15300,0.082,550
2019-12-04T09:09:54,42.805,6.029,CST-1368DR,7230,10135,15300,0.082,551
2019-12-04T09:12:56,42.805,6.029,CST-1368DR,7230,10135,15300,0.082,551
2019-12-04T09:15:57,42.805,6.029,CST-1368DR,7230,10134,15298,0.082,551
2019-12-04T09:18:59,42.805,6.029,CST-1368DR,7230,10135,15299,0.082,551
2019-12-04T09:22:01,42.805,6.029,CST-1368DR,7230,10134,15298,0.082,551
2019-12-04T09:25:02,42.805,6.029,CST-1368DR,7230,10135,15300,0.082,551
2019-12-04T09:28:04,42.805,6.029,CST-1368DR,7230,10134,15298,0.082,551
2019-12-04T09:31:05,42.805,6.029,CST-1368DR,7230,10135,15299,0.082,551
2019-12-04T09:34:07,42.805,6.029,CST-1368DR,7230,10135,15300,0.082,551
2019-12-04T09:37:09,42.805,6.029,CST-1368DR,7230,10135,15300,0.082,551
2019-12-04T09:40:10,42.805,6.029,CST-1368DR,7230,10133,15296,0.083,551
2019-12-04T09:43:12,42.805,6.029,CST-1368DR,7230,10134,15298,0.082,551
2019-12-04T09:46:14,42.805,6.029,CST-1368DR,7230,10135,15300,0.082,551
2019-12-04T09:49:16,42.805,6.029,CST-1368DR,7230,10133,15297,0.083,551
2019-12-04T09:52:17,42.805,6.029,CST-1368DR,7230,10134,15297,0.083,551
2019-12-04T09:55:19,42.805,6.029,CST-1368DR,7230,10134,15298,0.082,551
2019-12-04T09:58:20,42.805,6.029,CST-1368DR,7230,10134,15298,0.082,551
2019-12-04T10:01:22,42.805,6.029,CST-1368DR,7230,10134,15298,0.082,551
2019-12-04T10:04:24,42.805,6.029,CST-1368DR,7230,10135,15300,0.082,551
2019-12-04T10:07:25,42.805,6.029,CST-1368DR,7230,10134,15297,0.083,551
2019-12-04T10:10:27,42.805,6.029,CST-1368DR,7230,10134,15298,0.082,551
2019-12-04T10:13:29,42.805,6.029,CST-1368DR,7230,10134,15298,0.082,551
2019-12-04T10:16:31,42.805,6.029,CST-1368DR,7230,10134,15298,0.082,551
2019-12-04T10:19:32,42.805,6.029,CST-1368DR,7230,10133,15297,0.083,551
2019-12-04T10:22:34,42.805,6.029,CST-1368DR,7230,10134,15298,0.082,551
2019-12-04T10:25:35,42.805,6.029,CST-1368DR,7230,10134,15298,0.082,551
2019-12-04T10:28:37,42.805,6.029,CST-1368DR,7229,10133,15299,0.082,551
2019-12-04T10:31:39,42.805,6.029,CST-1368DR,7229,10135,15301,0.082,551
2019-12-04T10:34:41,42.805,6.029,CST-1368DR,7230,10136,15300,0.082,551
2019-12-04T10:37:42,42.805,6.029,CST-1368DR,7229,10134,15300,0.082,551
2019-12-04T10:40:44,42.805,6.029,CST-1368DR,7229,10134,15300,0.082,551
2019-12-04T10:43:45,42.805,6.029,CST-1368DR,7229,10134,15300,0.082,551
2019-12-04T10:46:47,42.805,6.029,CST-1368DR,7229,10135,15301,0.082,551
2019-12-04T10:49:49,42.805,6.029,CST-1368DR,7229,10134,15300,0.082,551
2019-12-04T10:52:51,42.805,6.029,CST-1368DR,7229,10135,15301,0.082,551
2019-12-04T10:55:52,42.805,6.029,CST-1368DR,7229,10134,15300,0.082,551
2019-12-04T10:58:54,42.805,6.029,CST-1368DR,7229,10133,15299,0.082,551
2019-12-04T11:01:55,42.805,6.029,CST-1368DR,7229,10133,15299,0.082,551
2019-12-04T11:04:57,42.805,6.029,CST-1368DR,7229,10135,15302,0.081,551
2019-12-04T11:07:59,42.805,6.029,CST-1368DR,7229,10135,15301,0.082,551
2019-12-04T11:11:00,42.805,6.029,CST-1368DR,7229,10134,15300,0.082,551
2019-12-04T11:14:02,42.805,6.029,CST-1368DR,7229,10134,15300,0.082,551
2019-12-04T11:17:03,42.805,6.029,CST-1368DR,7229,10134,15300,0.082,551
2019-12-04T11:20:05,42.805,6.029,CST-1368DR,7229,10134,15300,0.082,551
2019-12-04T11:23:07,42.805,6.029,CST-1368DR,7229,10134,15300,0.082,551
2019-12-04T11:26:09,42.805,6.029,CST-1368DR,7229,10134,15300,0.082,551
2019-12-04T11:29:11,42.805,6.029,CST-1368DR,7229,10135,15301,0.082,551
2019-12-04T11:32:12,42.805,6.029,CST-1368DR,7229,10134,15300,0.082,551
2019-12-04T11:35:14,42.805,6.029,CST-1368DR,7229,10134,15300,0.082,551
2019-12-04T11:38:16,42.805,6.029,CST-1368DR,7229,10134,15299,0.082,551
2019-12-04T11:41:17,42.805,6.029,CST-1368DR,7229,10135,15301,0.082,551
2019-12-04T11:44:19,42.805,6.029,CST-1368DR,7229,10134,15300,0.082,551
2019-12-04T11:47:20,42.805,6.029,CST-1368DR,7229,10133,15299,0.082,551
2019-12-04T11:50:22,42.805,6.029,CST-1368DR,7229,10134,15300,0.082,551
2019-12-04T11:53:24,42.805,6.029,CST-1368DR,7229,10130,15294,0.083,551
2019-12-04T11:56:25,42.805,6.029,CST-1368DR,7229,10136,15302,0.081,551
2019-12-04T11:59:27,42.805,6.029,CST-1368DR,7229,10134,15300,0.082,551
2019-12-04T12:02:28,42.805,6.029,CST-1368DR,7229,10134,15299,0.082,551
2019-12-04T12:05:30,42.805,6.029,CST-1368DR,7229,10133,15299,0.082,551
2019-12-04T12:08:32,42.805,6.029,CST-1368DR,7229,10134,15300,0.082,551
2019-12-04T12:11:34,42.805,6.029,CST-1368DR,7229,10134,15299,0.082,551
2019-12-04T12:14:35,42.805,6.029,CST-1368DR,7229,10134,15300,0.082,551
2019-12-04T12:17:37,42.805,6.029,CST-1368DR,7229,10133,15299,0.082,551
2019-12-04T12:20:39,42.805,6.029,CST-1368DR,7229,10134,15300,0.082,551
2019-12-04T12:23:40,42.805,6.029,CST-1368DR,7229,10133,15298,0.082,551
2019-12-04T12:26:42,42.805,6.029,CST-1368DR,7229,10134,15300,0.082,551
2019-12-04T12:29:44,42.805,6.029,CST-1368DR,7229,10133,15299,0.082,551
2019-12-04T12:32:45,42.805,6.029,CST-1368DR,7229,10133,15298,0.082,551
2019-12-04T12:35:47,42.805,6.029,CST-1368DR,7229,10134,15300,0.082,551
2019-12-04T12:38:49,42.805,6.029,CST-1368DR,7229,10134,15300,0.082,551
2019-12-04T12:41:50,42.805,6.029,CST-1368DR,7229,10134,15300,0.082,551
2019-12-04T12:44:52,42.805,6.029,CST-1368DR,7229,10134,15299,0.082,551
2019-12-04T12:47:54,42.805,6.029,CST-1368DR,7229,10134,15300,0.082,551
2019-12-04T12:50:55,42.805,6.029,CST-1368DR,7229,10133,15298,0.082,551
2019-12-04T12:53:57,42.805,6.029,CST-1368DR,7229,10133,15298,0.082,551
2019-12-04T12:56:58,42.805,6.029,CST-1368DR,7229,10134,15300,0.082,551
2019-12-04T13:00:00,42.805,6.029,CST-1368DR,7229,10133,15298,0.082,551
2019-12-04T13:03:02,42.805,6.029,CST-1368DR,7229,10134,15300,0.082,551
2019-12-04T13:06:03,42.805,6.029,CST-1368DR,7229,10134,15300,0.082,551
2019-12-04T13:09:05,42.805,6.029,CST-1368DR,7229,10134,15300,0.082,551
2019-12-04T13:12:06,42.805,6.029,CST-1368DR,7229,10134,15300,0.082,551
2019-12-04T13:15:08,42.805,6.029,CST-1368DR,7229,10134,15300,0.082,551
2019-12-04T13:18:10,42.805,6.029,CST-1368DR,7229,10134,15300,0.082,551
2019-12-04T13:21:11,42.805,6.029,CST-1368DR,7229,10134,15299,0.082,551
2019-12-04T13:24:13,42.805,6.029,CST-1368DR,7229,10134,15300,0.082,551
2019-12-04T13:27:15,42.805,6.029,CST-1368DR,7229,10134,15299,0.082,551
2019-12-04T13:30:16,42.805,6.029,CST-1368DR,7229,10134,15300,0.082,551
2019-12-04T13:33:18,42.805,6.029,CST-1368DR,7229,10135,15301,0.082,551
2019-12-04T13:36:20,42.805,6.029,CST-1368DR,7229,10134,15300,0.082,551
2019-12-04T13:39:21,42.805,6.029,CST-1368DR,7229,10135,15301,0.082,550
2019-12-04T13:42:23,42.805,6.029,CST-1368DR,7229,10134,15300,0.082,551
2019-12-04T13:45:25,42.805,6.029,CST-1368DR,7229,10134,15300,0.082,551
2019-12-04T13:48:26,42.805,6.029,CST-1368DR,7229,10134,15300,0.082,551
2019-12-04T13:51:28,42.805,6.029,CST-1368DR,7229,10134,15300,0.082,551
2019-12-04T13:54:29,42.805,6.029,CST-1368DR,7229,10134,15300,0.082,551
2019-12-04T13:57:31,42.805,6.029,CST-1368DR,7229,10134,15300,0.082,551
2019-12-04T14:00:33,42.805,6.029,CST-1368DR,7229,10134,15300,0.082,551
2019-12-04T14:03:34,42.805,6.029,CST-1368DR,7229,10134,15300,0.082,550
2019-12-04T14:06:36,42.805,6.029,CST-1368DR,7228,10133,15301,0.082,551
2019-12-04T14:09:38,42.805,6.029,CST-1368DR,7228,10134,15301,0.082,551
2019-12-04T14:12:39,42.805,6.029,CST-1368DR,7228,10133,15301,0.082,551
2019-12-04T14:15:41,42.805,6.029,CST-1368DR,7228,10131,15297,0.083,551
2019-12-04T14:18:43,42.805,6.029,CST-1368DR,7228,10131,15297,0.083,551
2019-12-04T14:21:44,42.805,6.029,CST-1368DR,7229,10133,15298,0.082,551
2019-12-04T14:24:46,42.805,6.029,CST-1368DR,7228,10133,15301,0.082,551
2019-12-04T14:27:48,42.805,6.029,CST-1368DR,7229,10133,15298,0.082,551
2019-12-04T14:30:49,42.805,6.029,CST-1368DR,7228,10133,15301,0.082,551
2019-12-04T14:33:51,42.805,6.029,CST-1368DR,7228,10134,15301,0.082,551
2019-12-04T14:36:52,42.805,6.029,CST-1368DR,7228,10134,15302,0.081,551
2019-12-04T14:39:54,42.805,6.029,CST-1368DR,7228,10134,15302,0.081,551
2019-12-04T14:42:56,42.805,6.029,CST-1368DR,7228,10134,15301,0.082,551
2019-12-04T14:45:57,42.805,6.029,CST-1368DR,7228,10133,15300,0.082,551
2019-12-04T14:48:59,42.805,6.029,CST-1368DR,7228,10134,15301,0.082,551
2019-12-04T14:52:01,42.805,6.029,CST-1368DR,7228,10133,15300,0.082,551
2019-12-04T14:55:02,42.805,6.029,CST-1368DR,7228,10133,15301,0.082,551
2019-12-04T14:58:04,42.805,6.029,CST-1368DR,7228,10133,15300,0.082,551
2019-12-04T15:01:05,42.805,6.029,CST-1368DR,7228,10133,15300,0.082,551
2019-12-04T15:04:07,42.805,6.029,CST-1368DR,7228,10134,15301,0.082,551
2019-12-04T15:07:09,42.805,6.029,CST-1368DR,7228,10133,15300,0.082,551
2019-12-04T15:10:10,42.805,6.029,CST-1368DR,7228,10132,15299,0.082,551
2019-12-04T15:13:12,42.805,6.029,CST-1368DR,7228,10133,15300,0.082,551
2019-12-04T15:16:14,42.805,6.029,CST-1368DR,7228,10134,15301,0.082,551
2019-12-04T15:19:15,42.805,6.029,CST-1368DR,7228,10133,15300,0.082,551
2019-12-04T15:22:17,42.805,6.029,CST-1368DR,7228,10133,15301,0.082,551
2019-12-04T15:25:19,42.805,6.029,CST-1368DR,7228,10133,15301,0.082,551
2019-12-04T15:28:20,42.805,6.029,CST-1368DR,7228,10132,15299,0.082,551
2019-12-04T15:31:22,42.805,6.029,CST-1368DR,7228,10133,15300,0.082,551
2019-12-04T15:34:23,42.805,6.029,CST-1368DR,7228,10132,15299,0.082,551
2019-12-04T15:37:25,42.805,6.029,CST-1368DR,7228,10134,15302,0.081,551
2019-12-04T15:40:27,42.805,6.029,CST-1368DR,7228,10133,15300,0.082,551
2019-12-04T15:43:28,42.805,6.029,CST-1368DR,7228,10133,15300,0.082,551
2019-12-04T15:46:30,42.805,6.029,CST-1368DR,7228,10133,15301,0.082,551
2019-12-04T15:49:32,42.805,6.029,CST-1368DR,7228,10130,15295,0.083,551
2019-12-04T15:52:33,42.805,6.029,CST-1368DR,7228,10134,15302,0.081,551
2019-12-04T16:00:07,42.805,6.029,CST-1368DR,7228,10134,15302,0.081,551
2019-12-04T16:03:09,42.805,6.029,CST-1368DR,7228,10134,15302,0.081,551
2019-12-04T16:06:10,42.805,6.029,CST-1368DR,7228,10134,15301,0.082,551
2019-12-04T16:09:12,42.805,6.029,CST-1368DR,7228,10133,15300,0.082,551
2019-12-04T16:12:13,42.805,6.029,CST-1368DR,7228,10134,15302,0.081,551
2019-12-04T16:15:15,42.805,6.029,CST-1368DR,7228,10134,15301,0.082,551
2019-12-04T16:18:17,42.805,6.029,CST-1368DR,7228,10134,15302,0.081,551
2019-12-04T16:21:18,42.805,6.029,CST-1368DR,7228,10132,15298,0.082,551
2019-12-04T16:24:20,42.805,6.029,CST-1368DR,7228,10134,15302,0.081,551
2019-12-04T16:27:21,42.805,6.029,CST-1368DR,7228,10134,15302,0.081,551
2019-12-04T16:30:23,42.805,6.029,CST-1368DR,7228,10132,15299,0.082,551
2019-12-04T16:33:25,42.805,6.029,CST-1368DR,7228,10134,15302,0.081,551
2019-12-04T16:36:26,42.805,6.029,CST-1368DR,7228,10134,15302,0.081,551
2019-12-04T16:39:28,42.805,6.029,CST-1368DR,7228,10134,15302,0.081,551
2019-12-04T16:42:30,42.805,6.029,CST-1368DR,7228,10134,15301,0.082,551